Flag for Germany Weather past 2 weeks in Goch, North Rhine-Westphalia, Germany

Now
66 °F

Clear.


Feels Like: 66 °F
Forecast: 64 / 80 °F
Wind: 5 mph from Northeast

Location: Niederrhein

Current Time: Jul 28, 2014 at 8:32:28 AM

Latest Report: Jul 28, 2014 at 7:50 AM


Visibility: 4 mi

Pressure: 29.89 "Hg

Humidity: 94%

Dew point: 64 °F

Location of GochLocation

Historic Weather in Goch — Graph

°F

Goch temperature yesterday

Maximum temperature yesterday: 81 °F (at 5:50 PM)
Minimum temperature yesterday: 63 °F (at 4:50 AM)
Average temperature yesterday: 73 °F

Past Weeks' High & Low Weather Summary

 TemperatureHumidityPressure
High93 °F (Jul 19, 3:50 PM)100% (Jul 14, 8:20 AM)30.18 "Hg (Jul 14, 8:20 AM)
Low54 °F (Jul 15, 5:50 AM)28% (Jul 19, 3:50 PM)29.71 "Hg (Jul 13, 5:20 PM)
Average72 °F71%29.98 "Hg
* Reported Jul 13 7:20 AM — Jul 28 7:20 AM, Goch, Weather by CustomWeather, © 2014

Note: Actual official high and low records may vary slightly from our data, if they occured in-between our weather recording intervals... More about our weather records

Advertising

Goch weather history for previous 24 hours

 ConditionsComfort  
Time TempWeatherWind HumidityBarometerVisibility
7:20 AM
Jul 28
66 °FClear.5 mph94%29.89 "Hg4 mi
6:50 AM66 °FClear.5 mph94%29.92 "Hg4 mi
6:20 AM66 °FClear.5 mph94%29.92 "Hg4 mi
5:50 AM66 °FClear.5 mph94%29.92 "Hg4 mi
5:20 AM66 °FClear.3 mph94%29.92 "Hg10 mi
11:50 PM
Jul 27
70 °FClear.3 mph78%29.98 "Hg10 mi
11:20 PM72 °FSunny.2 mph73%29.98 "Hg10 mi
10:50 PM72 °FSunny.2 mph73%29.98 "Hg10 mi
10:20 PM72 °FSunny.2 mph73%29.98 "Hg10 mi
9:50 PM73 °FSunny.2 mph69%29.98 "Hg10 mi
9:20 PM73 °FSunny.2 mph69%29.98 "Hg10 mi
8:50 PM75 °FSunny.2 mph61%29.98 "Hg10 mi
8:20 PM75 °FSunny.2 mph65%29.98 "Hg10 mi
7:50 PM77 °FSunny.2 mph61%29.95 "Hg10 mi
7:20 PM79 °FSunny.3 mph54%29.95 "Hg10 mi
6:50 PM79 °FSunny.2 mph54%29.95 "Hg10 mi
6:20 PM79 °FPassing clouds.5 mph54%29.98 "HgN/A
5:50 PM81 °FSunny.5 mph54%29.98 "Hg10 mi
5:20 PM79 °FPassing clouds.5 mph54%29.98 "HgN/A
4:50 PM79 °FSunny.5 mph54%29.98 "Hg10 mi
4:20 PM79 °FPassing clouds.7 mph58%29.98 "HgN/A
3:50 PM77 °FScattered clouds.6 mph57%30.01 "HgN/A
3:20 PM77 °FScattered clouds.6 mph57%30.01 "HgN/A
2:50 PM77 °FPartly sunny.6 mph57%30.01 "HgN/A
2:20 PM77 °FPartly sunny.6 mph61%30.01 "HgN/A
1:50 PM75 °FPartly sunny.7 mph65%30.01 "HgN/A
1:20 PM77 °FScattered clouds.8 mph61%30.01 "HgN/A
12:50 PM75 °FScattered clouds.8 mph65%30.01 "HgN/A
12:20 PM75 °FPartly sunny.6 mph65%30.01 "HgN/A
11:50 AM73 °FScattered clouds.6 mph69%30.01 "HgN/A
11:20 AM73 °FPassing clouds.8 mph69%30.01 "HgN/A
10:50 AM73 °FScattered clouds.6 mph69%30.01 "HgN/A
10:20 AM72 °FScattered clouds.8 mph73%30.01 "HgN/A
9:50 AM70 °FScattered clouds.8 mph78%30.01 "Hg6 mi
9:20 AM70 °FScattered clouds.8 mph83%30.01 "Hg6 mi
8:50 AM68 °FPassing clouds.6 mph88%30.01 "Hg4 mi
8:20 AM66 °FFog.6 mph94%30.01 "Hg3 mi
Weather by CustomWeather, © 2014

See weather overviewHow to use our weather pages